Location: Le Montillon
(46.1119°N, 1.2389°E)
Time: 17:50:43
(UTC+00:00)

Daily predictions for brighter satellites

Satellite Brightness Start Highest point End
(mag) Time Altitude Azimuth Time Altitude Azimuth Time Altitude Azimuth
Cosmos 1844 4.4 20:18:01 10° NNW 20:23:32 43° NE 20:28:57 10° SE
CZ-2C R/B 4.1 20:21:42 10° N 20:26:28 77° WNW 20:31:14 10° SSW
Cosmos 1602 Rocket 3.6 20:24:33 10° S 20:28:57 82° E 20:33:26 10° N
Cosmos 2263 Rocket 3.6 20:26:55 10° NW 20:31:53 34° WSW 20:36:49 10° SSW
Nadezhda 1 Rocket 4.1 20:26:39 10° N 20:33:06 74° E 20:39:28 10° SSE
Atlas Centaur 2 3.8 20:29:47 10° SW 20:33:45 19° S 20:38:17 10° SE
MetOp-B 4.2 20:28:59 10° SSE 20:34:17 69° ENE 20:39:38 10° N
Terra 3.5 20:32:34 10° ESE 20:35:58 20° ENE 20:39:23 10° NNE
Cosmos 2219 Rocket 3.3 20:32:34 10° SSE 20:36:53 24° ESE 20:41:16 10° NE
Cosmos 2360 Rocket 2.2 20:32:55 10° SSW 20:38:30 67° ESE 20:44:07 10° NNE
IGS 5A 3.8 20:35:56 10° SSE 20:39:57 51° ENE 20:44:00 10° N
Cosmos 2333 Rocket 3.0 20:41:40 10° SSE 20:46:34 31° ESE 20:51:31 10° NE
ATLAS 2AS CENTAUR R/B 4.4 20:43:17 10° NNW 20:49:53 29° NNE 20:56:04 10° E
Cosmos 1315 Rocket 4.4 20:47:58 10° NNE 20:51:15 23° ENE 20:54:13 11° ESE
Resurs 01 Rocket 2.4 20:47:28 10° S 20:51:46 50° W 20:56:05 10° NNW
Cosmos 1818 3.5 20:48:13 10° SSW 20:53:39 81° ESE 20:59:07 10° NE
CZ-2C R/B 4.2 20:49:28 10° N 20:54:30 40° WNW 20:59:25 10° SW
Cosmos-2242 3.1 20:50:40 10° N 20:54:59 64° ENE 20:59:06 11° SSE
Cosmos 773 Rocket 4.4 20:51:37 10° S 20:56:38 46° ESE 21:01:41 10° NNE
SL-16 R/B 3.6 20:52:07 10° SW 20:57:31 44° NW 21:02:57 10° NNE
Cosmos 2221 4.4 20:56:38 10° NNE 20:59:39 18° ENE 21:02:29 11° ESE
ERS-1 Rocket 3.4 20:56:51 12° SE 21:01:16 51° ENE 21:06:10 10° N
GEOS 3 Rocket 3.7 20:59:14 10° NE 21:04:38 70° SE 21:10:00 10° SSW
USA 215 3.4 21:01:48 10° ENE 21:08:09 50° SE 21:14:28 10° SSW
Cosmos 2278 Rocket 3.6 21:03:26 10° N 21:08:18 28° NE 21:13:09 10° ESE
ATLAS 5 CENTAUR R/B 1.6 21:06:13 10° SW 21:10:21 84° NW 21:15:01 10° NE
Meteor 1-11 4.4 21:05:55 10° S 21:11:24 57° E 21:16:58 10° NNE
USA 245 3.4 21:08:35 12° S 21:11:30 66° WSW 21:15:35 10° NNW
Cosmos 1844 Rocket 2.8 21:07:53 10° NNW 21:13:27 72° WSW 21:18:16 14° SSE
Cosmos 1400 Rocket 2.9 21:10:20 10° NNW 21:14:19 78° W 21:17:41 14° S
Cosmos 1758 Rocket 3.9 21:10:01 10° SSW 21:14:28 69° W 21:18:59 10° N
SPOT 5 3.1 21:13:56 16° SSE 21:17:58 62° ENE 21:22:43 10° N
Lacrosse 5 rocket 4.1 21:15:57 10° WNW 21:19:03 19° N 21:22:02 10° NE
Spot 2 Rocket 4.0 21:16:49 10° S 21:21:49 59° W 21:26:53 10° NNW
USA 81 4.1 21:19:52 14° S 21:24:24 62° E 21:29:38 10° NNE
Landsat 7 4.4 21:21:48 11° S 21:26:21 56° W 21:31:03 10° NNW
BREEZE M DEB (TANK) 1.6 21:24:27 10° WNW 21:26:59 60° SSW 21:27:39 35° SE
Cosmos 2181 Rocket 4.0 21:22:54 10° N 21:29:17 76° E 21:34:15 17° SSE
Cosmos 2074 Rocket 4.5 21:29:16 18° SSE 21:33:35 44° E 21:39:26 10° NNE
SPOT 1/Viking Rocket 4.0 21:31:52 13° S 21:36:26 57° W 21:41:32 10° NNW
Cosmos 1953 Rocket 3.7 21:33:17 10° SSW 21:37:35 72° W 21:41:56 10° N
USA 267 3.7 21:34:17 10° ESE 21:40:43 61° NNE 21:47:11 10° NW
SAR-Lupe-2 4.4 21:40:41 10° N 21:44:11 50° WNW 21:47:39 10° SSW
Cosmos 2084 3.6 21:41:03 10° NW 21:45:32 76° NE 21:48:05 25° SE
Cosmos 1842 Rocket 3.7 21:42:28 10° N 21:46:48 60° E 21:49:02 27° SSE
OAO 2 Rocket 4.5 21:43:12 10° SW 21:47:27 25° S 21:48:29 23° SSE
MTI 4.1 21:49:37 10° NNE 21:52:36 43° E 21:53:10 38° SE
Cosmos 923 Rocket 4.5 21:52:20 24° SSE 21:54:59 42° ESE 21:59:57 10° NE
ATLAS CENTAUR R/B 0.9 21:53:20 10° NW 21:57:02 82° SW 21:58:26 36° SSE
Cosmos 1825 4.1 21:58:09 16° E 21:58:34 16° E 22:00:53 10° NE
Cosmos 1980 4.2 21:56:55 24° SSE 21:59:43 41° ESE 22:04:59 10° NE
COSMOS 2428 2.8 21:58:52 10° SSW 22:04:32 82° WNW 22:10:16 10° NNE
Cosmos 1869 3.2 22:03:46 10° N 22:07:46 82° E 22:09:22 35° SSE
NOSS 0 Rocket 3.9 22:07:31 19° S 22:11:58 62° ESE 22:18:04 10° NNE
Terra 2.2 22:10:34 24° S 22:13:19 56° W 22:18:01 10° NNW
NOSS 3-4 (A) 4.2 22:07:13 10° NW 22:14:04 61° NE 22:19:46 18° ESE
NOSS 3-4 (C) 4.2 22:07:20 10° NW 22:14:10 60° NE 22:19:55 18° ESE
Cosmos 2237 Rocket 2.4 22:14:58 27° S 22:17:55 54° ESE 22:23:28 10° NE
Genesis I 3.9 22:18:36 34° ESE 22:18:36 34° ESE 22:22:04 10° NE
BREEZE-M DEB 4.3 22:16:09 10° WNW 22:20:19 79° SSW 22:37:37 10° ESE
Cosmos 2344 3.9 22:16:02 22° S 22:20:24 44° ESE 22:27:42 10° NE
Cosmos 2219 Rocket 2.8 22:14:57 10° SW 22:20:25 57° WNW 22:25:58 10° NNE
BREEZE-M R/B 4.3 22:11:36 10° WNW 22:21:15 49° SW 22:23:36 30° SSE
Atlas Centaur 2 4.0 22:17:32 10° SW 22:21:21 18° SSW 22:21:21 18° SSW
Elektron 1 4.2 22:21:21 46° SSE 22:21:59 55° SE 22:26:38 10° NE
Cosmos 2360 Rocket 4.5 22:18:27 10° W 22:23:00 24° NW 22:27:35 10° N
NOSS 3-3 (A) 4.2 22:17:17 10° SW 22:23:08 70° NW 22:29:48 10° NE
NOSS 3-3 (C) 4.2 22:17:22 10° SW 22:23:15 70° NW 22:29:56 10° NE
Cosmos 1315 Rocket 4.2 22:24:11 10° NNW 22:27:52 32° W 22:29:55 20° SW
DELTA 2 R/B (1) 4.0 22:23:07 10° SW 22:28:10 36° SSE 22:30:03 28° SE
Cosmos 2333 Rocket 3.2 22:25:11 10° SW 22:30:38 46° WNW 22:36:09 10° NNE
Thor Agena Rocket 3.7 22:26:22 10° NNE 22:31:24 55° E 22:33:18 35° SSE
Cosmos 2184 Rocket 4.1 22:27:10 20° SSW 22:31:39 73° W 22:37:59 10° N
Meteor 2-2 Rocket 4.5 22:27:05 10° NNW 22:32:52 67° W 22:35:55 28° S
Cosmos 2221 3.2 22:33:18 10° NNW 22:37:31 47° W 22:39:20 29° SSW
BREEZE-M DEB (TANK) 2.2 22:36:10 10° WNW 22:40:24 55° N 22:41:22 32° ENE
Iridium 2 3.7 22:37:53 10° N 22:41:43 69° E 22:42:26 53° SE
Cosmos 1371 Rocket 4.2 22:36:45 10° NNW 22:42:00 66° ENE 22:44:15 34° SE
ATLAS 2AS CENTAUR R/B 2.9 22:34:29 10° NW 22:42:08 77° NE 22:46:25 26° SE
Cosmos 1892 3.0 22:41:59 38° SW 22:43:14 62° W 22:47:00 10° N
EO 1 Del DPAF 3.2 22:40:44 10° NNE 22:44:29 62° ESE 22:44:59 55° SE
MOS 1-B Rocket 4.4 22:38:43 10° NNE 22:46:25 69° E 22:49:57 30° S
Okean 3 Rocket 4.2 22:47:03 36° ESE 22:47:54 40° E 22:52:03 10° NNE
Aureole 2 Rocket 3.5 22:46:30 10° N 22:49:00 27° ENE 22:49:00 27° ENE
Cosmos 2112 Rocket 4.0 22:48:24 32° SSW 22:50:57 83° ESE 22:56:21 10° NNE
USA 215 3.8 22:44:49 10° NE 22:51:17 62° NNW 22:57:42 10° WSW
Cosmos 1606 3.7 22:48:01 10° N 22:51:38 35° ENE 22:52:19 33° E
Cosmos 2278 Rocket 2.5 22:47:11 10° NW 22:52:43 55° WSW 22:54:59 33° S
Cosmos 2297 4.3 22:48:35 10° NNW 22:54:10 50° ENE 22:57:11 26° ESE
Cosmos 158 Rocket 3.8 22:52:56 33° SSW 22:55:10 84° WNW 23:00:06 10° NNE
Lacrosse 5 rocket 3.9 22:56:21 10° NW 22:59:25 20° NNE 23:02:21 10° ENE
Cosmos 1943 Rocket 3.7 22:55:38 10° N 23:00:36 30° NE 23:04:40 14° ESE
Spot 4 3.8 22:59:07 43° S 23:00:41 76° WSW 23:05:30 10° NNW
SL-16 R/B 2.6 23:00:46 37° SSE 23:02:17 45° ESE 23:07:41 10° NE
TIMED 4.4 23:01:49 51° S 23:02:48 74° ESE 23:07:11 10° NNE
Cosmos 2058 3.9 23:01:10 25° SW 23:03:01 40° WNW 23:06:57 10° N
Cosmos 1408 3.0 23:03:24 46° WSW 23:04:04 55° W 23:07:36 10° N
Cosmos 2056 Rocket 3.5 23:00:31 10° NNW 23:05:58 89° ENE 23:07:58 41° SSE
Nadezhda 3 Rocket 4.4 23:04:34 10° NNW 23:10:47 56° W 23:13:54 29° SSW
Cosmos 2154 Rocket 4.4 23:07:50 24° SSW 23:11:36 57° WNW 23:17:44 10° N
Cosmos 2341 Rocket 3.9 23:11:46 35° S 23:14:37 88° E 23:20:52 10° N
Cosmos 1680 Rocket 4.2 23:15:58 20° SW 23:19:25 51° WNW 23:24:38 10° NNE
Meteor 2-3 Rocket 4.1 23:21:02 37° SE 23:22:48 50° E 23:28:17 10° NNE
USA 267 3.5 23:21:24 35° S 23:23:50 51° SW 23:30:13 10° WNW
Cosmos 2151 3.2 23:23:52 45° SW 23:24:57 62° W 23:29:13 10° N
IRIDIUM 104 4.3 23:23:26 44° SSE 23:25:03 72° E 23:30:16 10° N
Helios 1A 3.6 23:24:53 38° ESE 23:25:52 47° ENE 23:29:53 10° N
Cosmos 1452 Rocket 3.9 23:27:47 10° NNW 23:33:00 57° ENE 23:35:06 34° SE
CZ-4C R/B 4.0 23:26:48 10° NNW 23:33:17 40° NE 23:40:45 10° ESE
SL-8 Rocket 3.9 23:30:58 38° S 23:33:34 89° W 23:39:46 10° N
Cosmos 1825 3.2 23:32:56 34° WSW 23:33:44 38° WNW 23:37:18 10° N
BREEZE-M DEB (TANK) 4.4 23:31:28 10° W 23:32:45 14° WSW 23:32:45 14° WSW
IRIDIUM 114 4.2 23:32:35 46° S 23:34:12 86° E 23:39:27 10° N
Cosmos 1340 2.6 23:34:23 64° ESE 23:34:28 64° E 23:38:12 10° NNE
COSMOS 2455 3.4 23:28:42 10° NNW 23:34:39 55° NE 23:38:24 22° ESE
ALOS 2 2.7 23:35:27 52° SSW 23:36:15 64° WSW 23:40:38 10° NNW
Cosmos 1408 Rocket 3.6 23:35:56 56° SE 23:36:37 66° E 23:41:00 10° NNE
Cosmos 1933 3.1 23:33:44 10° N 23:37:47 88° WSW 23:38:13 70° S
Cosmos 1151 Rocket 2.9 23:35:00 10° N 23:39:21 80° W 23:40:03 61° S
Meteor 2-12 Rocket 4.4 23:37:27 40° S 23:39:52 85° E 23:46:02 10° N
IRIDIUM 103 4.3 23:41:42 45° SSW 23:43:20 80° W 23:48:36 10° N
Cosmos 44 3.0 23:43:37 49° SW 23:44:45 79° NW 23:49:12 10° NE
APEX 3.7 23:42:18 10° NNW 23:44:21 40° NNE 23:44:21 40° NNE
Cosmos 2369 Rocket 3.1 23:40:00 10° NNW 23:45:20 43° NE 23:48:49 20° ESE
Cosmos 1727 Rocket 4.1 23:39:12 10° N 23:45:27 71° E 23:48:04 37° SSE
Cosmos 1500 Rocket 4.3 23:44:49 37° ESE 23:45:29 40° E 23:49:37 10° NNE
SL-4 R/B 3.7 23:48:59 15° NNW 23:48:59 15° NNW 23:49:27 10° NNW
GP-B 3.4 23:43:28 10° N 23:47:51 58° W 23:48:50 46° SW
Cosmos 371 Rocket 3.2 23:44:25 10° NNW 23:49:18 81° WSW 23:50:25 53° S
Dummy Sat-01 4.5 23:51:14 10° N 23:55:02 88° W 23:55:12 81° SSW
Helios 1B rocket 3.6 23:51:22 10° NE 23:55:03 30° E 23:55:23 30° ESE
CREW DRAGON DEMO-1 DEB 3.8 23:54:49 44° NW 23:55:06 46° NNW 23:58:05 10° ENE
